Flag for Germany Weather past 2 weeks in Bremerhaven, Bremen, Germany

Now
59 °F

Partly sunny.


Feels Like: 58 °F
Forecast: 60 / 74 °F
Wind: 7 mph from South

Location: Nordholz

Current Time: Aug 29, 2015 at 10:26:42 AM

Latest Report: Aug 29, 2015 at 9:20 AM


Visibility: N/A

Pressure: 30.21 "Hg

Humidity: 88%

Dew point: 55 °F

Location of BremerhavenLocation

Historic Weather in Bremerhaven — Graph

°F

Bremerhaven temperature yesterday

Maximum temperature yesterday: 68 °F (at 3:20 PM)
Minimum temperature yesterday: 55 °F (at 9:20 PM)
Average temperature yesterday: 60 °F

Past Weeks' High & Low Weather Summary

 TemperatureHumidityPressure
High79 °F (Aug 14, 2:20 PM)100% (Aug 15, 6:20 AM)30.27 "Hg (Aug 15, 6:20 AM)
Low52 °F (Aug 29, 3:20 AM)34% (Aug 22, 3:20 PM)29.53 "Hg (Aug 24, 7:20 PM)
Average64 °F83%29.93 "Hg
* Reported Aug 14 7:20 AM — Aug 29 7:20 AM, Bremerhaven, Weather by CustomWeather, © 2015

Note: Actual official high and low records may vary slightly from our data, if they occured in-between our weather recording intervals... More about our weather records

Advertising

Bremerhaven weather history for previous 24 hours

 ConditionsComfort  
Time TempWeatherWind HumidityBarometerVisibility
7:20 AM
Sat, Aug 29
54 °FFog.7 mph100%30.18 "HgN/A
6:20 AM52 °FFog.5 mph94%30.18 "Hg5 mi
5:20 AM54 °FFog.7 mph94%30.18 "HgN/A
4:20 AM52 °FPassing clouds.7 mph94%30.18 "HgN/A
3:20 AM52 °FPassing clouds.6 mph94%30.15 "HgN/A
2:20 AM54 °FPassing clouds.6 mph94%30.15 "HgN/A
1:20 AM54 °FPassing clouds.6 mph94%30.15 "HgN/A
12:20 AM54 °FPassing clouds.5 mph94%30.12 "HgN/A
11:20 PM
Fri, Aug 28
55 °FPassing clouds.6 mph94%30.12 "HgN/A
10:20 PM55 °FPassing clouds.6 mph94%30.12 "HgN/A
9:20 PM55 °FScattered clouds.3 mph94%30.09 "HgN/A
8:20 PM61 °FPassing clouds.6 mph77%30.09 "HgN/A
7:20 PM63 °FPassing clouds.8 mph83%30.07 "HgN/A
6:20 PM63 °FPassing clouds.2 mph83%30.07 "HgN/A
5:55 PM59 °FSprinkles. Broken clouds.3 mph94%30.07 "Hg4 mi
5:20 PM61 °FRain showers. Partly sunny.8 mph77%30.07 "Hg4 mi
4:20 PM66 °FScattered showers. Scattered clouds.12 mph68%30.04 "HgN/A
3:20 PM68 °FScattered clouds.12 mph64%30.04 "HgN/A
2:20 PM66 °FPassing clouds.13 mph73%30.01 "HgN/A
1:20 PM64 °FScattered clouds.12 mph78%30.01 "HgN/A
12:20 PM63 °FScattered clouds.10 mph77%30.01 "HgN/A
11:20 AM61 °FBroken clouds.12 mph83%29.98 "HgN/A
10:20 AM61 °FBroken clouds.10 mph88%29.98 "HgN/A
10:03 AM61 °FBroken clouds.10 mph88%29.98 "Hg6 mi
Weather by CustomWeather, © 2015

See weather overviewHow to use our weather pages